Regional Weather Roundup
Issued by NWS

Home | Current Version | Previous Version | Graphics & Text | Print | Product List | Glossary On
Versions: 1 2 3 4 5 6 7 8 9 10 11 12 13 14 15 16 17 18 19 20 21 22 23 24 25 26 27 28 29 30 31 32 33 34 35 36 37 38 39 40 41 42 43 44 45 46 47 48 49 50
000
ASUS45 KBOU 131010
RWRCO

WEATHER ROUNDUP FOR COLORADO
NATIONAL WEATHER SERVICE DENVER/BOULDER CO
400 AM MDT SUN JUL 13 2014

NOTE: "FAIR" INDICATES FEW OR NO CLOUDS BELOW 12000 FEET WITH NO
SIGNIFICANT WEATHER AND/OR OBSTRUCTIONS TO VISIBILITY.

COZ001>005-013-030-031-131100-
...NORTHWEST COLORADO...

CITY           SKY/WX    TMP DP  RH WIND       PRES   REMARKS
CRAIG          CLEAR     54  54 100 NE6       30.34S
HAYDEN         CLEAR     57  48  72 E13       30.36S
MEEKER         CLEAR     57  50  77 E6        30.34S
MOUNT WERNER   NOT AVBL
STEAMBOAT SPGS CLEAR     54  48  80 CALM      30.39R
WALDEN         PTCLDY    43  39  87 SE7       30.49S
$$

COZ006>008-011-131100-
...WEST CENTRAL VALLEYS...

CITY           SKY/WX    TMP DP  RH WIND       PRES   REMARKS
GRAND JUNCTION   N/A     75  49  39 MISG      30.18R
MONTROSE       MOCLDY    64  49  57 S9        30.29S
EAGLE          CLEAR     57  55  94 E3        30.40R
RIFLE          CLEAR     64  55  72 CALM      30.27R
DELTA          MOCLDY    67  53  60 NE5       30.24S
NUCLA          MOCLDY    66  48  52 S5        30.31S
$$

COZ017>023-064>068-131100-
...SOUTHWEST COLORADO...

CITY           SKY/WX    TMP DP  RH WIND       PRES   REMARKS
DURANGO        MOCLDY    56  52  86 CALM      30.35S
CORTEZ         CLEAR     60  55  83 N3        30.28R
PAGOSA SPRINGS LGT RAIN  63  49  61 S3        30.43S
TELLURIDE      NOT AVBL
WOLF CREEK PAS NOT AVBL
$$

COZ009-010-012-014-032>034-037-058>063-131100-
...CENTRAL COLORADO...

CITY           SKY/WX    TMP DP  RH WIND       PRES   REMARKS
ASPEN          PTCLDY    54  47  77 CALM      30.44R
BUENA VISTA    PTCLDY    53  51  95 W5        30.51S
COPPER MTN     PTCLDY    50  41  71 S15       30.75S
BERTHOUD PASS  FAIR      39  27  60 SE12      30.79F
COTTONWOOD PAS CLEAR     54  50  87 CALM      30.62S
GUNNISON       CLEAR     52  46  82 CALM      30.50S
KREMMLING      CLEAR     54  50  87 CALM      30.47R
LEADVILLE      CLOUDY    46  44  93 VRB3      30.61F
MONARCH PASS   PTCLDY    45  41  87 SE5       30.85S
SALIDA         CLEAR     56  52  85 CALM      30.54F
SUNLIGHT       PTCLDY    52  48  87 NE5       30.67S
WILKERSON PASS PTCLDY    45  43  93 W5        30.74S
$$

COZ069>075-131100-
...SAN LUIS VALLEY/SANGRE DE CRISTO MOUNTAINS...

CITY           SKY/WX    TMP DP  RH WIND       PRES   REMARKS
ALAMOSA        CLOUDY    58  50  75 CALM      30.44S
LA VETA PASS   CLOUDY    48  43  81 CALM      30.61S
SAGUACHE       NOT AVBL
$$

COZ035-036-038>040-131100-
...NORTHERN COLORADO FRONT RANGE...

CITY           SKY/WX    TMP DP  RH WIND       PRES   REMARKS
DENVER INTL AP PTCLDY    62  57  83 SW9       30.33S
DMNS CITY PARK   N/A     61  58  88 S1        30.33S
AURORA         PTCLDY    60  58  95 S5        30.35S
FRONT RANGE AP NOT AVBL
ERIE MUNI ARPT CLEAR     57  55  93 CALM      30.31F
BOULDER MUN AP CLEAR     63  54  72 CALM      30.32S
CENTENNIAL     MOCLDY    62  55  77 SW5       30.36S
BROOMFIELD     CLEAR     61  54  77 CALM      30.35S
FORT COLLINS   PTCLDY    61  57  88 N6        30.32F
LONGMONT       CLEAR     62  56  81 CALM      30.32F
$$

COZ041-046-047-076>085-087-088-131100-
...PIKES PEAK/PALMER DIVIDE AND SOUTHERN FOOTHILLS...

CITY           SKY/WX    TMP DP  RH WIND       PRES   REMARKS
COLO. SPRINGS  MOCLDY    60  58  92 W5        30.38F
A. F. ACADEMY  CLOUDY    57  57 100 N8        30.40F
ELLICOTT       MOCLDY    59  56  89 N6        30.36F
FALCON         MOCLDY    57  54  90 NW6       30.42F
FORT CARSON    MOCLDY    59  59 100 NW5       30.35F
LIMON          CLOUDY    62  60  93 CALM      30.33F
MONUMENT HILL  PTCLDY    55  54  94 W6        30.42S
TRINIDAD       CLOUDY    62  58  86 W8        30.34R
$$

COZ042>045-048>051-090-091-131100-
...NORTHEAST COLORADO...

CITY           SKY/WX    TMP DP  RH WIND       PRES   REMARKS
GREELEY ARPT   NOT AVBL
AKRON          MOCLDY    61  59  93 W6        30.28S
BURLINGTON     CLOUDY    67  61  81 SW7       30.25F
WRAY           PTCLDY   N/A N/A N/A W5        30.23S
STERLING       MOCLDY    64  63  94 CALM      30.24S
HOLYOKE        PTCLDY    63  59  88 CALM      30.23S
FORT MORGAN    MOCLDY    62  58  85 N9        30.28S
$$

COZ086-089-092>099-131100-
...SOUTHEAST COLORADO...

CITY           SKY/WX    TMP DP  RH WIND       PRES   REMARKS
PUEBLO         CLOUDY    64  63  96 NW5       30.28F
LA JUNTA       CLOUDY    66  63  90 NW10      30.25S
LAMAR          CLOUDY    67  64  90 W12       30.20F
SPRINGFIELD      N/A     65  60  84 NW10      30.26R
$$



USA.gov is the U.S. government's official web portal to all federal, state and local government web resources and services.